Location: ??????
(55.6500°N, 37.8000°E)
Time: 20:02:17
(UTC+00:00)

Cosmos 1371 Rocket - Pass Details

Date: 14 April 2024
Orbit: 751 x 787 km, 74.0° (Epoch: 27 May)

Event Time Altitude Azimuth Distance (km) Brightness Sun altitude
Rises 01:13:07 0° 330° (NNW) 3,231 7.3 -10.0°
Reaches altitude 10° 01:15:31 10° 327° (NNW) 2,306 6.5 -9.8°
Maximum altitude 01:20:39 59° 249° (WSW) 885 4.0 -9.2°
Drops below altitude 10° 01:25:48 10° 171° (S) 2,313 6.3 -8.5°
Sets 01:28:12 0° 168° (SSE) 3,242 7.1 -8.2°
